owner,sensor,date,latitude,longitude,vertical_datum,wind_speed,wind_to_direction,wind_speed_of_gust,qcFlag 
TCOON,ioos:station:TCOON:524:1,2013-08-01T00:00:00Z,29.8672,-93.9310,0.0,4.1,204.0,5.9,'11111222,11111222,11111222' 
TCOON,ioos:station:TCOON:524:1,2013-08-01T00:06:00Z,29.8672,-93.9310,0.0,3.9,207.0,5.9,'11111222,11111222,11111222' 
TCOON,ioos:station:TCOON:524:1,2013-08-01T00:12:00Z,29.8672,-93.9310,0.0,3.4,194.0,5.6,'11111222,11111222,11111222' 
TCOON,ioos:station:TCOON:524:1,2013-08-01T00:18:00Z,29.8672,-93.9310,0.0,4.4,198.0,6.0,'11111222,11111222,11111222' 
TCOON,ioos:station:TCOON:524:1,2013-08-01T00:24:00Z,29.8672,-93.9310,0.0,3.1,192.0,5.5,'11111222,11111222,11111222' 
TCOON,ioos:station:TCOON:524:1,2013-08-01T00:30:00Z,29.8672,-93.9310,0.0,2.6,191.0,5.7,'11111222,11111222,11111222' 
TCOON,ioos:station:TCOON:524:1,2013-08-01T00:36:00Z,29.8672,-93.9310,0.0,3.5,198.0,5.3,'11111222,11111222,11111222' 
TCOON,ioos:station:TCOON:524:1,2013-08-01T00:42:00Z,29.8672,-93.9310,0.0,3.4,193.0,5.1,'11111222,11111222,11111222' 
TCOON,ioos:station:TCOON:524:1,2013-08-01T00:48:00Z,29.8672,-93.9310,0.0,2.8,195.0,5.4,'11111222,11111222,11111222' 
TCOON,ioos:station:TCOON:524:1,2013-08-01T00:54:00Z,29.8672,-93.9310,0.0,2.4,192.0,4.3,'11111222,11111222,11111222' 
TCOON,ioos:station:TCOON:524:1,2013-08-01T01:00:00Z,29.8672,-93.9310,0.0,2.1,195.0,3.3,'11111222,11111222,11111222' 
TCOON,ioos:station:TCOON:524:1,2013-08-01T01:06:00Z,29.8672,-93.9310,0.0,2.5,194.0,3.1,'11111222,11111222,11111222' 
TCOON,ioos:station:TCOON:524:1,2013-08-01T01:12:00Z,29.8672,-93.9310,0.0,2.7,200.0,3.9,'11111222,11111222,11111222' 
TCOON,ioos:station:TCOON:524:1,2013-08-01T01:18:00Z,29.8672,-93.9310,0.0,2.2,192.0,3.7,'11111222,11111222,11111222' 
TCOON,ioos:station:TCOON:524:1,2013-08-01T01:24:00Z,29.8672,-93.9310,0.0,2.1,191.0,3.3,'11111222,11111222,11111222' 
TCOON,ioos:station:TCOON:524:1,2013-08-01T01:30:00Z,29.8672,-93.9310,0.0,1.9,191.0,2.9,'11111222,11111222,11111222' 
TCOON,ioos:station:TCOON:524:1,2013-08-01T01:36:00Z,29.8672,-93.9310,0.0,1.8,193.0,2.7,'11111222,11111222,11111222' 
TCOON,ioos:station:TCOON:524:1,2013-08-01T01:42:00Z,29.8672,-93.9310,0.0,1.9,191.0,3.2,'11111222,11111222,11111222' 
TCOON,ioos:station:TCOON:524:1,2013-08-01T01:48:00Z,29.8672,-93.9310,0.0,2.2,184.0,3.2,'11111222,11111222,11111222' 
TCOON,ioos:station:TCOON:524:1,2013-08-01T01:54:00Z,29.8672,-93.9310,0.0,2.1,186.0,3.1,'11111222,11111222,11111222' 
TCOON,ioos:station:TCOON:524:1,2013-08-01T02:00:00Z,29.8672,-93.9310,0.0,2.2,183.0,3.1,'11111222,11111222,11111222' 
TCOON,ioos:station:TCOON:524:1,2013-08-01T02:06:00Z,29.8672,-93.9310,0.0,2.2,191.0,3.7,'11111222,11111222,11111222' 
TCOON,ioos:station:TCOON:524:1,2013-08-01T02:12:00Z,29.8672,-93.9310,0.0,2.0,191.0,3.0,'11111222,11111222,11111222' 
TCOON,ioos:station:TCOON:524:1,2013-08-01T02:18:00Z,29.8672,-93.9310,0.0,1.7,193.0,2.8,'11111222,11111222,11111222' 
TCOON,ioos:station:TCOON:524:1,2013-08-01T02:24:00Z,29.8672,-93.9310,0.0,2.0,190.0,3.0,'11111222,11111222,11111222' 
TCOON,ioos:station:TCOON:524:1,2013-08-01T02:30:00Z,29.8672,-93.9310,0.0,1.9,192.0,2.9,'11111222,11111222,11111222' 
TCOON,ioos:station:TCOON:524:1,2013-08-01T02:36:00Z,29.8672,-93.9310,0.0,2.1,189.0,3.1,'11111222,11111222,11111222' 
TCOON,ioos:station:TCOON:524:1,2013-08-01T02:42:00Z,29.8672,-93.9310,0.0,1.9,192.0,2.7,'11111222,11111222,11111222' 
TCOON,ioos:station:TCOON:524:1,2013-08-01T02:48:00Z,29.8672,-93.9310,0.0,1.6,193.0,2.9,'11111222,11111222,11111222' 
TCOON,ioos:station:TCOON:524:1,2013-08-01T02:54:00Z,29.8672,-93.9310,0.0,1.8,192.0,2.6,'11111222,11111222,11111222' 
TCOON,ioos:station:TCOON:524:1,2013-08-01T03:00:00Z,29.8672,-93.9310,0.0,1.9,190.0,2.8,'11111222,11111222,11111222' 
TCOON,ioos:station:TCOON:524:1,2013-08-01T03:06:00Z,29.8672,-93.9310,0.0,1.9,191.0,2.6,'11111222,11111222,11111222' 
TCOON,ioos:station:TCOON:524:1,2013-08-01T03:12:00Z,29.8672,-93.9310,0.0,1.6,188.0,2.7,'11111222,11111222,11111222' 
TCOON,ioos:station:TCOON:524:1,2013-08-01T03:18:00Z,29.8672,-93.9310,0.0,2.1,184.0,2.5,'11111222,11111222,11111222' 
TCOON,ioos:station:TCOON:524:1,2013-08-01T03:24:00Z,29.8672,-93.9310,0.0,2.3,192.0,3.2,'11111222,11111222,11111222' 
TCOON,ioos:station:TCOON:524:1,2013-08-01T03:30:00Z,29.8672,-93.9310,0.0,2.2,195.0,3.3,'11111222,11111222,11111222' 
TCOON,ioos:station:TCOON:524:1,2013-08-01T03:36:00Z,29.8672,-93.9310,0.0,2.0,196.0,2.9,'11111222,11111222,11111222' 
TCOON,ioos:station:TCOON:524:1,2013-08-01T03:42:00Z,29.8672,-93.9310,0.0,2.0,198.0,2.9,'11111222,11111222,11111222' 
TCOON,ioos:station:TCOON:524:1,2013-08-01T03:48:00Z,29.8672,-93.9310,0.0,2.0,198.0,2.8,'11111222,11111222,11111222' 
TCOON,ioos:station:TCOON:524:1,2013-08-01T03:54:00Z,29.8672,-93.9310,0.0,2.3,197.0,3.5,'11111222,11111222,11111222' 
TCOON,ioos:station:TCOON:524:1,2013-08-01T04:00:00Z,29.8672,-93.9310,0.0,2.1,193.0,3.2,'11111222,11111222,11111222' 
TCOON,ioos:station:TCOON:524:1,2013-08-01T04:06:00Z,29.8672,-93.9310,0.0,1.9,192.0,3.0,'11111222,11111222,11111222' 
TCOON,ioos:station:TCOON:524:1,2013-08-01T04:12:00Z,29.8672,-93.9310,0.0,2.0,192.0,2.9,'11111222,11111222,11111222' 
TCOON,ioos:station:TCOON:524:1,2013-08-01T04:18:00Z,29.8672,-93.9310,0.0,1.8,189.0,3.0,'11111222,11111222,11111222' 
TCOON,ioos:station:TCOON:524:1,2013-08-01T04:24:00Z,29.8672,-93.9310,0.0,2.0,183.0,2.7,'11111222,11111222,11111222' 
TCOON,ioos:station:TCOON:524:1,2013-08-01T04:30:00Z,29.8672,-93.9310,0.0,2.3,184.0,2.7,'11111222,11111222,11111222' 
TCOON,ioos:station:TCOON:524:1,2013-08-01T04:36:00Z,29.8672,-93.9310,0.0,1.6,191.0,2.3,'11111222,11111222,11111222' 
TCOON,ioos:station:TCOON:524:1,2013-08-01T04:42:00Z,29.8672,-93.9310,0.0,1.6,190.0,2.1,'11111222,11111222,11111222' 
TCOON,ioos:station:TCOON:524:1,2013-08-01T04:48:00Z,29.8672,-93.9310,0.0,1.6,187.0,2.1,'11111222,11111222,11111222' 
TCOON,ioos:station:TCOON:524:1,2013-08-01T04:54:00Z,29.8672,-93.9310,0.0,1.6,184.0,2.2,'11111222,11111222,11111222' 
TCOON,ioos:station:TCOON:524:1,2013-08-01T05:00:00Z,29.8672,-93.9310,0.0,1.6,186.0,2.3,'11111222,11111222,11111222' 
TCOON,ioos:station:TCOON:524:1,2013-08-01T05:06:00Z,29.8672,-93.9310,0.0,1.7,188.0,2.3,'11111222,11111222,11111222' 
TCOON,ioos:station:TCOON:524:1,2013-08-01T05:12:00Z,29.8672,-93.9310,0.0,1.8,189.0,2.6,'11111222,11111222,11111222' 
TCOON,ioos:station:TCOON:524:1,2013-08-01T05:18:00Z,29.8672,-93.9310,0.0,1.6,179.0,2.2,'11111222,11111222,11111222' 
TCOON,ioos:station:TCOON:524:1,2013-08-01T05:24:00Z,29.8672,-93.9310,0.0,1.8,187.0,2.5,'11111222,11111222,11111222' 
TCOON,ioos:station:TCOON:524:1,2013-08-01T05:30:00Z,29.8672,-93.9310,0.0,1.7,197.0,2.5,'11111222,11111222,11111222' 
TCOON,ioos:station:TCOON:524:1,2013-08-01T05:36:00Z,29.8672,-93.9310,0.0,1.9,193.0,2.8,'11111222,11111222,11111222' 
TCOON,ioos:station:TCOON:524:1,2013-08-01T05:42:00Z,29.8672,-93.9310,0.0,1.9,192.0,3.1,'11111222,11111222,11111222' 
TCOON,ioos:station:TCOON:524:1,2013-08-01T05:48:00Z,29.8672,-93.9310,0.0,2.3,199.0,3.0,'11111222,11111222,11111222' 
TCOON,ioos:station:TCOON:524:1,2013-08-01T05:54:00Z,29.8672,-93.9310,0.0,2.1,204.0,3.0,'11111222,11111222,11111222' 
TCOON,ioos:station:TCOON:524:1,2013-08-01T06:00:00Z,29.8672,-93.9310,0.0,2.1,194.0,3.2,'11111222,11111222,11111222' 
TCOON,ioos:station:TCOON:524:1,2013-08-01T06:06:00Z,29.8672,-93.9310,0.0,2.2,196.0,3.3,'11111222,11111222,11111222' 
TCOON,ioos:station:TCOON:524:1,2013-08-01T06:12:00Z,29.8672,-93.9310,0.0,2.4,190.0,3.8,'11111222,11111222,11111222' 
TCOON,ioos:station:TCOON:524:1,2013-08-01T06:18:00Z,29.8672,-93.9310,0.0,1.7,192.0,3.0,'11111222,11111222,11111222' 
TCOON,ioos:station:TCOON:524:1,2013-08-01T06:24:00Z,29.8672,-93.9310,0.0,1.8,188.0,2.5,'11111222,11111222,11111222' 
TCOON,ioos:station:TCOON:524:1,2013-08-01T06:30:00Z,29.8672,-93.9310,0.0,2.4,198.0,3.5,'11111222,11111222,11111222' 
TCOON,ioos:station:TCOON:524:1,2013-08-01T06:36:00Z,29.8672,-93.9310,0.0,2.0,192.0,2.8,'11111222,11111222,11111222' 
TCOON,ioos:station:TCOON:524:1,2013-08-01T06:42:00Z,29.8672,-93.9310,0.0,2.4,200.0,3.1,'11111222,11111222,11111222' 
TCOON,ioos:station:TCOON:524:1,2013-08-01T06:48:00Z,29.8672,-93.9310,0.0,2.5,198.0,3.6,'11111222,11111222,11111222' 
TCOON,ioos:station:TCOON:524:1,2013-08-01T06:54:00Z,29.8672,-93.9310,0.0,2.7,196.0,3.4,'11111222,11111222,11111222' 
TCOON,ioos:station:TCOON:524:1,2013-08-01T07:00:00Z,29.8672,-93.9310,0.0,2.3,198.0,4.1,'11111222,11111222,11111222' 
TCOON,ioos:station:TCOON:524:1,2013-08-01T07:06:00Z,29.8672,-93.9310,0.0,2.5,201.0,3.6,'11111222,11111222,11111222' 
TCOON,ioos:station:TCOON:524:1,2013-08-01T07:12:00Z,29.8672,-93.9310,0.0,2.4,203.0,3.5,'11111222,11111222,11111222' 
TCOON,ioos:station:TCOON:524:1,2013-08-01T07:18:00Z,29.8672,-93.9310,0.0,3.0,207.0,3.8,'11111222,11111222,11111222' 
TCOON,ioos:station:TCOON:524:1,2013-08-01T07:24:00Z,29.8672,-93.9310,0.0,3.1,205.0,3.9,'11111222,11111222,11111222' 
TCOON,ioos:station:TCOON:524:1,2013-08-01T07:30:00Z,29.8672,-93.9310,0.0,3.1,202.0,4.0,'11111222,11111222,11111222' 
TCOON,ioos:station:TCOON:524:1,2013-08-01T07:36:00Z,29.8672,-93.9310,0.0,2.7,205.0,4.3,'11111222,11111222,11111222' 
TCOON,ioos:station:TCOON:524:1,2013-08-01T07:42:00Z,29.8672,-93.9310,0.0,2.3,209.0,3.6,'11111222,11111222,11111222' 
TCOON,ioos:station:TCOON:524:1,2013-08-01T07:48:00Z,29.8672,-93.9310,0.0,2.1,204.0,3.3,'11111222,11111222,11111222' 
TCOON,ioos:station:TCOON:524:1,2013-08-01T07:54:00Z,29.8672,-93.9310,0.0,2.3,214.0,3.1,'11111222,11111222,11111222' 
TCOON,ioos:station:TCOON:524:1,2013-08-01T08:00:00Z,29.8672,-93.9310,0.0,1.8,213.0,3.1,'11111222,11111222,11111222' 
TCOON,ioos:station:TCOON:524:1,2013-08-01T08:06:00Z,29.8672,-93.9310,0.0,2.0,206.0,3.3,'11111222,11111222,11111222' 
TCOON,ioos:station:TCOON:524:1,2013-08-01T08:12:00Z,29.8672,-93.9310,0.0,2.1,230.0,3.3,'11111222,11111222,11111222' 
TCOON,ioos:station:TCOON:524:1,2013-08-01T08:18:00Z,29.8672,-93.9310,0.0,2.7,236.0,3.2,'11111222,11111222,11111222' 
TCOON,ioos:station:TCOON:524:1,2013-08-01T08:24:00Z,29.8672,-93.9310,0.0,2.6,231.0,3.5,'11111222,11111222,11111222' 
TCOON,ioos:station:TCOON:524:1,2013-08-01T08:30:00Z,29.8672,-93.9310,0.0,2.4,233.0,3.4,'11111222,11111222,11111222' 
TCOON,ioos:station:TCOON:524:1,2013-08-01T08:36:00Z,29.8672,-93.9310,0.0,2.6,231.0,3.0,'11111222,11111222,11111222' 
TCOON,ioos:station:TCOON:524:1,2013-08-01T08:42:00Z,29.8672,-93.9310,0.0,2.9,227.0,3.4,'11111222,11111222,11111222' 
TCOON,ioos:station:TCOON:524:1,2013-08-01T08:48:00Z,29.8672,-93.9310,0.0,2.7,211.0,3.8,'11111222,11111222,11111222' 
TCOON,ioos:station:TCOON:524:1,2013-08-01T08:54:00Z,29.8672,-93.9310,0.0,2.8,217.0,3.3,'11111222,11111222,11111222' 
TCOON,ioos:station:TCOON:524:1,2013-08-01T09:00:00Z,29.8672,-93.9310,0.0,2.7,227.0,3.7,'11111222,11111222,11111222' 
TCOON,ioos:station:TCOON:524:1,2013-08-01T09:06:00Z,29.8672,-93.9310,0.0,3.1,227.0,3.9,'11111222,11111222,11111222' 
TCOON,ioos:station:TCOON:524:1,2013-08-01T09:12:00Z,29.8672,-93.9310,0.0,3.6,220.0,4.2,'11111222,11111222,11111222' 
TCOON,ioos:station:TCOON:524:1,2013-08-01T09:18:00Z,29.8672,-93.9310,0.0,3.0,211.0,4.5,'11111222,11111222,11111222' 
TCOON,ioos:station:TCOON:524:1,2013-08-01T09:24:00Z,29.8672,-93.9310,0.0,3.4,225.0,4.3,'11111222,11111222,11111222' 
TCOON,ioos:station:TCOON:524:1,2013-08-01T09:30:00Z,29.8672,-93.9310,0.0,3.5,232.0,4.7,'11111222,11111222,11111222' 
TCOON,ioos:station:TCOON:524:1,2013-08-01T09:36:00Z,29.8672,-93.9310,0.0,3.0,238.0,4.1,'11111222,11111222,11111222' 
TCOON,ioos:station:TCOON:524:1,2013-08-01T09:42:00Z,29.8672,-93.9310,0.0,3.5,236.0,4.6,'11111222,11111222,11111222' 
TCOON,ioos:station:TCOON:524:1,2013-08-01T09:48:00Z,29.8672,-93.9310,0.0,3.6,231.0,4.8,'11111222,11111222,11111222' 
TCOON,ioos:station:TCOON:524:1,2013-08-01T09:54:00Z,29.8672,-93.9310,0.0,3.8,231.0,4.4,'11111222,11111222,11111222' 
TCOON,ioos:station:TCOON:524:1,2013-08-01T10:00:00Z,29.8672,-93.9310,0.0,3.2,238.0,4.2,'11111222,11111222,11111222' 
TCOON,ioos:station:TCOON:524:1,2013-08-01T10:06:00Z,29.8672,-93.9310,0.0,3.4,234.0,4.6,'11111222,11111222,11111222' 
TCOON,ioos:station:TCOON:524:1,2013-08-01T10:12:00Z,29.8672,-93.9310,0.0,3.3,237.0,4.2,'11111222,11111222,11111222' 
TCOON,ioos:station:TCOON:524:1,2013-08-01T10:18:00Z,29.8672,-93.9310,0.0,3.6,235.0,4.6,'11111222,11111222,11111222' 
TCOON,ioos:station:TCOON:524:1,2013-08-01T10:24:00Z,29.8672,-93.9310,0.0,3.8,237.0,4.7,'11111222,11111222,11111222' 
TCOON,ioos:station:TCOON:524:1,2013-08-01T10:30:00Z,29.8672,-93.9310,0.0,3.8,235.0,4.8,'11111222,11111222,11111222' 
TCOON,ioos:station:TCOON:524:1,2013-08-01T10:36:00Z,29.8672,-93.9310,0.0,3.9,227.0,4.7,'11111222,11111222,11111222' 
TCOON,ioos:station:TCOON:524:1,2013-08-01T10:42:00Z,29.8672,-93.9310,0.0,3.3,235.0,4.6,'11111222,11111222,11111222' 
TCOON,ioos:station:TCOON:524:1,2013-08-01T10:48:00Z,29.8672,-93.9310,0.0,3.6,235.0,4.6,'11111222,11111222,11111222' 
TCOON,ioos:station:TCOON:524:1,2013-08-01T10:54:00Z,29.8672,-93.9310,0.0,4.0,239.0,5.0,'11111222,11111222,11111222' 
TCOON,ioos:station:TCOON:524:1,2013-08-01T11:00:00Z,29.8672,-93.9310,0.0,3.3,241.0,4.9,'11111222,11111222,11111222' 
TCOON,ioos:station:TCOON:524:1,2013-08-01T11:06:00Z,29.8672,-93.9310,0.0,3.2,238.0,4.5,'11111222,11111222,11111222' 
TCOON,ioos:station:TCOON:524:1,2013-08-01T11:12:00Z,29.8672,-93.9310,0.0,3.6,231.0,4.5,'11111222,11111222,11111222' 
TCOON,ioos:station:TCOON:524:1,2013-08-01T11:18:00Z,29.8672,-93.9310,0.0,3.6,234.0,4.4,'11111222,11111222,11111222' 
TCOON,ioos:station:TCOON:524:1,2013-08-01T11:24:00Z,29.8672,-93.9310,0.0,3.8,235.0,5.2,'11111222,11111222,11111222' 
TCOON,ioos:station:TCOON:524:1,2013-08-01T11:30:00Z,29.8672,-93.9310,0.0,3.0,242.0,4.7,'11111222,11111222,11111222' 
TCOON,ioos:station:TCOON:524:1,2013-08-01T11:36:00Z,29.8672,-93.9310,0.0,3.2,241.0,5.2,'11111222,11111222,11111222' 
TCOON,ioos:station:TCOON:524:1,2013-08-01T11:42:00Z,29.8672,-93.9310,0.0,3.8,236.0,4.8,'11111222,11111222,11111222' 
TCOON,ioos:station:TCOON:524:1,2013-08-01T11:48:00Z,29.8672,-93.9310,0.0,3.8,239.0,5.1,'11111222,11111222,11111222' 
TCOON,ioos:station:TCOON:524:1,2013-08-01T11:54:00Z,29.8672,-93.9310,0.0,4.2,237.0,5.4,'11111222,11111222,11111222' 
TCOON,ioos:station:TCOON:524:1,2013-08-01T12:00:00Z,29.8672,-93.9310,0.0,3.9,235.0,4.9,'11111222,11111222,11111222' 
TCOON,ioos:station:TCOON:524:1,2013-08-01T12:06:00Z,29.8672,-93.9310,0.0,2.9,248.0,4.9,'11111222,11111222,11111222' 
TCOON,ioos:station:TCOON:524:1,2013-08-01T12:12:00Z,29.8672,-93.9310,0.0,2.3,259.0,3.4,'11111222,11111222,11111222' 
TCOON,ioos:station:TCOON:524:1,2013-08-01T12:18:00Z,29.8672,-93.9310,0.0,2.6,240.0,3.1,'11111222,11111222,11111222' 
TCOON,ioos:station:TCOON:524:1,2013-08-01T12:24:00Z,29.8672,-93.9310,0.0,3.1,249.0,3.7,'11111222,11111222,11111222' 
TCOON,ioos:station:TCOON:524:1,2013-08-01T12:30:00Z,29.8672,-93.9310,0.0,2.7,240.0,4.4,'11111222,11111222,11111222' 
TCOON,ioos:station:TCOON:524:1,2013-08-01T12:36:00Z,29.8672,-93.9310,0.0,4.6,237.0,6.0,'11111222,11111222,11111222' 
TCOON,ioos:station:TCOON:524:1,2013-08-01T12:42:00Z,29.8672,-93.9310,0.0,3.8,250.0,5.9,'11111222,11111222,11111222' 
TCOON,ioos:station:TCOON:524:1,2013-08-01T12:48:00Z,29.8672,-93.9310,0.0,3.2,251.0,4.0,'11111222,11111222,11111222' 
TCOON,ioos:station:TCOON:524:1,2013-08-01T12:54:00Z,29.8672,-93.9310,0.0,2.9,252.0,3.7,'11111222,11111222,11111222' 
TCOON,ioos:station:TCOON:524:1,2013-08-01T13:00:00Z,29.8672,-93.9310,0.0,2.9,248.0,4.2,'11111222,11111222,11111222' 
TCOON,ioos:station:TCOON:524:1,2013-08-01T13:06:00Z,29.8672,-93.9310,0.0,2.9,249.0,4.1,'11111222,11111222,11111222' 
TCOON,ioos:station:TCOON:524:1,2013-08-01T13:12:00Z,29.8672,-93.9310,0.0,2.8,255.0,3.9,'11111222,11111222,11111222' 
TCOON,ioos:station:TCOON:524:1,2013-08-01T13:18:00Z,29.8672,-93.9310,0.0,3.1,261.0,4.1,'11111222,11111222,11111222' 
TCOON,ioos:station:TCOON:524:1,2013-08-01T13:24:00Z,29.8672,-93.9310,0.0,4.5,286.0,5.7,'11111222,11111222,11111222' 
TCOON,ioos:station:TCOON:524:1,2013-08-01T13:30:00Z,29.8672,-93.9310,0.0,3.1,276.0,4.6,'11111222,11111222,11111222' 
TCOON,ioos:station:TCOON:524:1,2013-08-01T13:36:00Z,29.8672,-93.9310,0.0,4.1,281.0,5.8,'11111222,11111222,11111222' 
TCOON,ioos:station:TCOON:524:1,2013-08-01T13:42:00Z,29.8672,-93.9310,0.0,4.8,286.0,6.1,'11111222,11111222,11111222' 
TCOON,ioos:station:TCOON:524:1,2013-08-01T13:48:00Z,29.8672,-93.9310,0.0,3.5,293.0,5.0,'11111222,11111222,11111222' 
TCOON,ioos:station:TCOON:524:1,2013-08-01T13:54:00Z,29.8672,-93.9310,0.0,3.6,271.0,4.8,'11111222,11111222,11111222' 
TCOON,ioos:station:TCOON:524:1,2013-08-01T14:00:00Z,29.8672,-93.9310,0.0,3.5,279.0,5.5,'11111222,11111222,11111222' 
TCOON,ioos:station:TCOON:524:1,2013-08-01T14:06:00Z,29.8672,-93.9310,0.0,4.1,286.0,6.0,'11111222,11111222,11111222' 
TCOON,ioos:station:TCOON:524:1,2013-08-01T14:12:00Z,29.8672,-93.9310,0.0,4.3,272.0,6.1,'11111222,11111222,11111222' 
TCOON,ioos:station:TCOON:524:1,2013-08-01T14:18:00Z,29.8672,-93.9310,0.0,4.2,288.0,5.9,'11111222,11111222,11111222' 
TCOON,ioos:station:TCOON:524:1,2013-08-01T14:24:00Z,29.8672,-93.9310,0.0,3.7,284.0,6.4,'11111222,11111222,11111222' 
TCOON,ioos:station:TCOON:524:1,2013-08-01T14:30:00Z,29.8672,-93.9310,0.0,4.9,273.0,6.5,'11111222,11111222,11111222' 
TCOON,ioos:station:TCOON:524:1,2013-08-01T14:36:00Z,29.8672,-93.9310,0.0,4.4,267.0,7.2,'11111222,11111222,11111222' 
TCOON,ioos:station:TCOON:524:1,2013-08-01T14:42:00Z,29.8672,-93.9310,0.0,5.3,289.0,7.0,'11111222,11111222,11111222' 
TCOON,ioos:station:TCOON:524:1,2013-08-01T14:48:00Z,29.8672,-93.9310,0.0,4.4,267.0,6.9,'11111222,11111222,11111222' 
TCOON,ioos:station:TCOON:524:1,2013-08-01T14:54:00Z,29.8672,-93.9310,0.0,5.1,277.0,6.6,'11111222,11111222,11111222' 
TCOON,ioos:station:TCOON:524:1,2013-08-01T15:00:00Z,29.8672,-93.9310,0.0,4.4,278.0,6.8,'11111222,11111222,11111222' 
TCOON,ioos:station:TCOON:524:1,2013-08-01T15:06:00Z,29.8672,-93.9310,0.0,4.0,279.0,6.7,'11111222,11111222,11111222' 
TCOON,ioos:station:TCOON:524:1,2013-08-01T15:12:00Z,29.8672,-93.9310,0.0,3.1,272.0,5.3,'11111222,11111222,11111222' 
TCOON,ioos:station:TCOON:524:1,2013-08-01T15:18:00Z,29.8672,-93.9310,0.0,3.5,269.0,5.8,'11111222,11111222,11111222' 
TCOON,ioos:station:TCOON:524:1,2013-08-01T15:24:00Z,29.8672,-93.9310,0.0,3.7,288.0,5.4,'11111222,11111222,11111222' 
TCOON,ioos:station:TCOON:524:1,2013-08-01T15:36:00Z,29.8672,-93.9310,0.0,4.2,294.0,5.4,'11111222,11111222,11111222' 
TCOON,ioos:station:TCOON:524:1,2013-08-01T15:42:00Z,29.8672,-93.9310,0.0,3.8,292.0,5.7,'11111222,11111222,11111222' 
TCOON,ioos:station:TCOON:524:1,2013-08-01T15:48:00Z,29.8672,-93.9310,0.0,4.2,245.0,5.2,'11111222,11111222,11111222' 
TCOON,ioos:station:TCOON:524:1,2013-08-01T15:54:00Z,29.8672,-93.9310,0.0,2.5,264.0,4.9,'11111222,11111222,11111222' 
TCOON,ioos:station:TCOON:524:1,2013-08-01T16:00:00Z,29.8672,-93.9310,0.0,2.8,271.0,5.6,'11111222,11111222,11111222' 
TCOON,ioos:station:TCOON:524:1,2013-08-01T16:06:00Z,29.8672,-93.9310,0.0,4.2,288.0,5.4,'11111222,11111222,11111222' 
TCOON,ioos:station:TCOON:524:1,2013-08-01T16:12:00Z,29.8672,-93.9310,0.0,3.0,268.0,4.9,'11111222,11111222,11111222' 
TCOON,ioos:station:TCOON:524:1,2013-08-01T16:18:00Z,29.8672,-93.9310,0.0,3.5,257.0,4.8,'11111222,11111222,11111222' 
TCOON,ioos:station:TCOON:524:1,2013-08-01T16:24:00Z,29.8672,-93.9310,0.0,2.3,276.0,3.9,'11111222,11111222,11111222' 
TCOON,ioos:station:TCOON:524:1,2013-08-01T16:30:00Z,29.8672,-93.9310,0.0,2.5,273.0,4.9,'11111222,11111222,11111222' 
TCOON,ioos:station:TCOON:524:1,2013-08-01T16:36:00Z,29.8672,-93.9310,0.0,3.1,237.0,4.6,'11111222,11111222,11111222' 
TCOON,ioos:station:TCOON:524:1,2013-08-01T16:42:00Z,29.8672,-93.9310,0.0,3.7,305.0,5.7,'11111222,11111222,11111222' 
TCOON,ioos:station:TCOON:524:1,2013-08-01T16:48:00Z,29.8672,-93.9310,0.0,2.6,311.0,4.9,'11111222,11111222,11111222' 
TCOON,ioos:station:TCOON:524:1,2013-08-01T16:54:00Z,29.8672,-93.9310,0.0,1.2,322.0,3.5,'11111222,11111222,11111222' 
TCOON,ioos:station:TCOON:524:1,2013-08-01T17:00:00Z,29.8672,-93.9310,0.0,3.4,297.0,5.5,'11111222,11111222,11111222' 
TCOON,ioos:station:TCOON:524:1,2013-08-01T17:06:00Z,29.8672,-93.9310,0.0,1.9,285.0,5.0,'11111222,11111222,11111222' 
TCOON,ioos:station:TCOON:524:1,2013-08-01T17:12:00Z,29.8672,-93.9310,0.0,2.3,278.0,3.5,'11111222,11111222,11111222' 
TCOON,ioos:station:TCOON:524:1,2013-08-01T17:18:00Z,29.8672,-93.9310,0.0,2.1,320.0,3.8,'11111222,11111222,11111222' 
TCOON,ioos:station:TCOON:524:1,2013-08-01T17:24:00Z,29.8672,-93.9310,0.0,2.0,238.0,3.3,'11111222,11111222,11111222' 
TCOON,ioos:station:TCOON:524:1,2013-08-01T17:30:00Z,29.8672,-93.9310,0.0,0.9,318.0,3.1,'11111222,11111222,11111222' 
TCOON,ioos:station:TCOON:524:1,2013-08-01T17:36:00Z,29.8672,-93.9310,0.0,2.1,292.0,3.6,'11111222,11111222,11111222' 
TCOON,ioos:station:TCOON:524:1,2013-08-01T17:42:00Z,29.8672,-93.9310,0.0,2.1,299.0,3.8,'11111222,11111222,11111222' 
TCOON,ioos:station:TCOON:524:1,2013-08-01T17:48:00Z,29.8672,-93.9310,0.0,2.0,330.0,3.2,'11111222,11111222,11111222' 
TCOON,ioos:station:TCOON:524:1,2013-08-01T17:54:00Z,29.8672,-93.9310,0.0,3.0,253.0,3.8,'11111222,11111222,11111222' 
TCOON,ioos:station:TCOON:524:1,2013-08-01T18:00:00Z,29.8672,-93.9310,0.0,1.4,278.0,3.7,'11111222,11111222,11111222' 
TCOON,ioos:station:TCOON:524:1,2013-08-01T18:06:00Z,29.8672,-93.9310,0.0,2.1,208.0,2.8,'11111222,11111222,11111222' 
TCOON,ioos:station:TCOON:524:1,2013-08-01T18:12:00Z,29.8672,-93.9310,0.0,3.1,301.0,4.4,'11111222,11111222,11111222' 
TCOON,ioos:station:TCOON:524:1,2013-08-01T18:18:00Z,29.8672,-93.9310,0.0,2.5,285.0,4.4,'11111222,11111222,11111222' 
TCOON,ioos:station:TCOON:524:1,2013-08-01T18:24:00Z,29.8672,-93.9310,0.0,3.4,278.0,4.9,'11111222,11111222,11111222' 
TCOON,ioos:station:TCOON:524:1,2013-08-01T18:30:00Z,29.8672,-93.9310,0.0,1.0,333.0,3.2,'11111222,11111222,11111222' 
TCOON,ioos:station:TCOON:524:1,2013-08-01T18:36:00Z,29.8672,-93.9310,0.0,1.2,346.0,1.7,'11111222,11111222,11111222' 
TCOON,ioos:station:TCOON:524:1,2013-08-01T18:42:00Z,29.8672,-93.9310,0.0,1.8,301.0,3.1,'11111222,11111222,11111222' 
TCOON,ioos:station:TCOON:524:1,2013-08-01T18:48:00Z,29.8672,-93.9310,0.0,0.9,233.0,2.7,'11111222,11111222,11111222' 
TCOON,ioos:station:TCOON:524:1,2013-08-01T18:54:00Z,29.8672,-93.9310,0.0,1.4,213.0,2.1,'11111222,11111222,11111222' 
TCOON,ioos:station:TCOON:524:1,2013-08-01T19:00:00Z,29.8672,-93.9310,0.0,1.2,303.0,2.8,'11111222,11111222,11111222' 
TCOON,ioos:station:TCOON:524:1,2013-08-01T19:06:00Z,29.8672,-93.9310,0.0,1.6,328.0,3.0,'11111222,11111222,11111222' 
TCOON,ioos:station:TCOON:524:1,2013-08-01T19:12:00Z,29.8672,-93.9310,0.0,0.5,351.0,2.8,'11111222,11111222,11111222' 
TCOON,ioos:station:TCOON:524:1,2013-08-01T19:18:00Z,29.8672,-93.9310,0.0,2.0,6.0,3.4,'11111222,11111222,11111222' 
TCOON,ioos:station:TCOON:524:1,2013-08-01T19:24:00Z,29.8672,-93.9310,0.0,2.9,354.0,4.5,'11111222,11111222,11111222' 
TCOON,ioos:station:TCOON:524:1,2013-08-01T19:30:00Z,29.8672,-93.9310,0.0,0.9,299.0,2.8,'11111222,11111222,11111222' 
TCOON,ioos:station:TCOON:524:1,2013-08-01T19:36:00Z,29.8672,-93.9310,0.0,1.6,264.0,2.2,'11111222,11111222,11111222' 
TCOON,ioos:station:TCOON:524:1,2013-08-01T19:42:00Z,29.8672,-93.9310,0.0,0.7,345.0,1.3,'11111222,11111222,11111222' 
TCOON,ioos:station:TCOON:524:1,2013-08-01T19:48:00Z,29.8672,-93.9310,0.0,0.5,96.0,1.6,'11111222,11111222,11111222' 
TCOON,ioos:station:TCOON:524:1,2013-08-01T19:54:00Z,29.8672,-93.9310,0.0,2.0,129.0,3.0,'11111222,11111222,11111222' 
TCOON,ioos:station:TCOON:524:1,2013-08-01T20:00:00Z,29.8672,-93.9310,0.0,0.2,328.0,2.4,'11111222,11111222,11111222' 
TCOON,ioos:station:TCOON:524:1,2013-08-01T20:06:00Z,29.8672,-93.9310,0.0,0.7,336.0,1.0,'11111222,11111222,11111222' 
TCOON,ioos:station:TCOON:524:1,2013-08-01T20:12:00Z,29.8672,-93.9310,0.0,0.6,3.0,1.6,'11111222,11111222,11111222' 
TCOON,ioos:station:TCOON:524:1,2013-08-01T20:18:00Z,29.8672,-93.9310,0.0,2.5,107.0,3.3,'11111222,11111222,11111222' 
TCOON,ioos:station:TCOON:524:1,2013-08-01T20:24:00Z,29.8672,-93.9310,0.0,2.3,135.0,3.5,'11111222,11111222,11111222' 